Location: Wildlife_Club
(35.6000°N, 81.4330°W)
Time: 15:10:33
(UTC-04:00)

SR - Visible Passes

Search period start: 07 August 2020 00:00
Search period end: 17 August 2020 00:00
Orbit: 584 x 871 km, 66.7° (Epoch: 07 August)

Date Brightness Start Highest point End Pass type
(mag) Time Alt. Az. Time Alt. Az. Time Alt. Az.
07 Aug ? 00:41:57 16° NNW 00:41:57 16° NNW 00:43:29 10° N visible
07 Aug ? 23:52:45 23° N 23:52:45 23° N 23:54:37 10° N visible
08 Aug ? 23:03:18 25° NNE 23:03:18 25° NNE 23:05:11 10° NNE visible
09 Aug ? 22:13:28 22° ENE 22:13:28 22° ENE 22:15:15 10° NE visible
09 Aug ? 23:52:44 20° WNW 23:53:12 20° NW 23:56:28 10° N visible
10 Aug ? 21:22:40 15° E 21:22:40 15° E 21:24:24 10° ENE visible
10 Aug ? 23:01:49 31° WSW 23:03:21 42° WNW 23:07:33 10° NNE visible
11 Aug ? 22:08:56 10° SSW 22:13:39 82° ESE 22:18:04 10° NNE visible
11 Aug ? 23:55:43 10° NW 23:56:07 10° NW 23:56:32 10° NW visible
12 Aug ? 21:19:49 10° S 21:24:04 34° ESE 21:28:04 10° NE visible
12 Aug ? 23:02:35 10° WSW 23:06:05 21° NW 23:09:27 10° N visible
13 Aug ? 06:04:16 10° NNE 06:06:14 13° NE 06:08:14 10° ENE visible
13 Aug ? 22:11:46 10° SW 22:16:14 46° WNW 22:20:28 10° NNE visible
14 Aug ? 21:21:52 10° SSW 21:26:33 75° ESE 21:30:56 10° NNE visible
14 Aug ? 23:07:50 10° WNW 23:08:58 11° NW 23:10:06 10° NW visible
15 Aug ? 06:05:28 10° N 06:09:05 24° NE 06:12:54 10° ESE visible
15 Aug ? 22:15:20 10° WSW 22:18:58 23° NW 22:22:26 10° N visible
16 Aug ? 05:17:25 10° NNE 05:19:05 12° NE 05:20:48 10° ENE visible
16 Aug ? 21:24:38 10° SW 21:29:08 49° WNW 21:33:22 10° NNE visible
